Regional Weather Roundup
Issued by NWS Newport/Morehead, NC

Current Version | Previous Version | Text Only | Print | Product List | Glossary On
Versions: 1 2 3 4 5 6 7 8 9 10 11 12 13 14 15 16 17 18 19 20 21 22 23 24 25 26 27 28 29 30 31 32 33 34 35 36 37 38 39 40 41 42 43 44 45 46 47 48 49 50
000
ASUS42 KMHX 222113
RWRMHX
WEATHER ROUNDUP FOR EASTERN NORTH CAROLINA
NATIONAL WEATHER SERVICE NEWPORT/MOREHEAD CITY NC
500 PM EDT FRI JUL 22 2016

NOTE: "FAIR" INDICATES FEW OR NO CLOUDS BELOW 12,000 FEET
WITH NO SIGNIFICANT WEATHER AND/OR OBSTRUCTIONS TO VISIBILITY

NCZ015>017-031-032-045>047-102-103-222200-
NORTH COAST

CITY           SKY/WX    TMP DP  RH WIND       PRES   REMARKS
EDENTON        MOSUNNY   91  69  46 SW10      30.01F
ELIZABETH CITY PTSUNNY   90  71  53 SW15G21   30.00F
KITTY HAWK     PTCLDY    90  71  53 S9        30.01F
MANTEO           N/A     86  74  66 S16       30.03F

$$

NCZ045>047-081-094-103-104-222200-
CENTRAL COAST

CITY           SKY/WX    TMP DP  RH WIND       PRES   REMARKS
FRISCO         SUNNY     86  69  56 S8        30.05F

$$

NCZ095-097-098-100-101-222200-
SOUTHERN COAST

CITY           SKY/WX    TMP DP  RH WIND       PRES   REMARKS
BEAUFORT       SUNNY     85  71  63 S12       30.04F
CEDAR ISLAND   NOT AVBL
JACKSONVILLE   PTSUNNY   88  69  53 S13       30.03F
PINEY ISLAND   CLEAR    N/A N/A N/A S9        30.04F
WILMINGTON     SUNNY     88  71  57 S8        30.03F


$$

NCZ011>013-027>030-043-044-078>080-089-090>093-098-222200-
COASTAL PLAIN

CITY           SKY/WX    TMP DP  RH WIND       PRES   REMARKS
AHOSKIE        SUNNY     87  74  65 CALM      30.00F
CLINTON        SUNNY     91  73  54 SW6       30.03F
ELIZABETHTOWN  MOSUNNY   91  70  50 SW8       30.04F
GOLDSBORO      SUNNY     93  70  46 SW10      30.00F
GREENVILLE     MOSUNNY   90  72  55 SW10      30.03F
HAVELOCK       SUNNY     87  69  54 S14G20    30.04F
KENANSVILLE    MOSUNNY   89  68  49 CALM      30.03F
KINSTON        SUNNY     91  70  49 S8        30.02F
NEW BERN       MOSUNNY   89  70  53 S9        30.04F
RICHLANDS      MOSUNNY   89  72  56 S13       30.03F
ROCKY MOUNT    PTSUNNY   89  74  60 SW6       30.01F
WASHINGTON     CLOUDY    89  71  54 S8        30.01F
WHITEVILLE     SUNNY     90  73  56 S8        30.03F

$$

AMZ130-135-150-152-154-156-158-170-250-252-270-ANZ085-086-088-633-658-670-222200-
MARINE OBSERVATIONS

STATION/POSITION TIME  TEMP    WIND        PRES    WAVE   SWELL
                       AIR SEA DIR/SP/G            HT/PER HT/PER
                 (UTC) (F)     (DEG/KT/KT) (MB)    (FT/S) (FT/S)
CHESAPEAKE LIGHT NOT AVBL
64 E VA BEACH    2050   81 82  190/ 16/ 17 1016.3    3/ 9   2/ 9
DUCK             2000   86 80  180/ 13/ 15 1015.9
2 E DUCK         2011      82                N/A     2/ 9
OREGON INLET     2000   84 83  180/ 14/ 16 1017.4
13E OREGON INLT  2100      83                N/A     3/ 9   2/ 6
HATTERAS CG      2000   85 83  170/  8/ 11 1017.5
DIAMOND BUOY     2050   83 86  190/  8/ 10 1017.5    2/ 9   2/ 9
CAPE LOOKOUT     2100   84     180/  9/ 10 1017.2
BEAUFORT LAB     2000   84 84  190/  9/ 11 1017.3
30 SE NEW RVR IN 2008   85 86  170/  6/  8 1018.2
30 SE NEW RVR IN 2025      86                N/A     3/ 9
27 SE WRIGHTSVLE 2008   84 86  210/  4/  6 1018.5
5 SE WRIGHTSVLE  NOT AVBL
225 S CAPE HAT   2050   83 87   70/  2/  2 1018.0    3/ 7   3/ 7
41 SE CHARLESTON 2050   87      CALM  /  2 1017.4    3/ 9   3/ 9

$$




USA.gov is the U.S. government's official web portal to all federal, state and local government web resources and services.